TimeCST,TemperatureF,Dew PointF,Humidity,Sea Level PressureIn,VisibilityMPH,Wind Direction,Wind SpeedMPH,Gust SpeedMPH,PrecipitationIn,Events,Conditions,WindDirDegrees,DateUTC
12:55 AM,47.8,44.8,89,29.88,10.0,NE,4.6,-,N/A,,Overcast,50,2012-12-07 06:55:00
1:55 AM,47.3,45.5,93,29.88,10.0,North,8.1,-,N/A,,Overcast,350,2012-12-07 07:55:00
2:22 AM,46.4,44.6,93,29.89,10.0,North,8.1,-,N/A,,Overcast,350,2012-12-07 08:22:00
2:55 AM,46.8,45.1,94,29.88,10.0,North,6.9,-,,,Light Drizzle,10,2012-12-07 08:55:00
3:05 AM,46.4,46.4,100,29.88,10.0,NNE,8.1,-,N/A,,Overcast,20,2012-12-07 09:05:00
3:55 AM,46.4,46.2,99,29.88,10.0,North,5.8,-,,,Overcast,360,2012-12-07 09:55:00
4:55 AM,46.0,45.7,99,29.88,10.0,North,9.2,-,N/A,,Overcast,10,2012-12-07 10:55:00
5:11 AM,46.4,46.4,100,29.88,10.0,North,8.1,-,N/A,,Overcast,360,2012-12-07 11:11:00
5:20 AM,46.4,46.4,100,29.87,10.0,North,9.2,-,N/A,,Overcast,10,2012-12-07 11:20:00
5:55 AM,45.5,45.3,99,29.88,10.0,NNE,10.4,-,N/A,,Overcast,30,2012-12-07 11:55:00
6:55 AM,45.1,44.8,99,29.90,6.0,NNE,6.9,-,N/A,,Overcast,20,2012-12-07 12:55:00
7:55 AM,44.6,44.4,99,29.91,6.0,NNE,5.8,-,N/A,,Overcast,20,2012-12-07 13:55:00
8:55 AM,45.0,44.8,99,29.91,10.0,North,6.9,-,N/A,,Overcast,10,2012-12-07 14:55:00
9:55 AM,46.2,45.9,99,29.92,10.0,ENE,3.5,-,N/A,,Overcast,70,2012-12-07 15:55:00
10:55 AM,47.1,45.7,95,29.90,10.0,NE,4.6,-,N/A,,Overcast,50,2012-12-07 16:55:00
11:15 AM,48.2,46.4,93,29.89,10.0,ENE,6.9,-,N/A,,Overcast,60,2012-12-07 17:15:00
11:55 AM,50.2,45.9,85,29.87,10.0,NNE,5.8,-,N/A,,Mostly Cloudy,30,2012-12-07 17:55:00
12:55 PM,49.6,45.7,86,29.87,10.0,Calm,Calm,-,N/A,,Overcast,0,2012-12-07 18:55:00
1:29 PM,50.0,46.4,87,29.85,10.0,Variable,3.5,-,N/A,,Overcast,0,2012-12-07 19:29:00
1:55 PM,50.0,45.7,85,29.84,10.0,Calm,Calm,-,N/A,,Overcast,0,2012-12-07 19:55:00
2:55 PM,51.3,46.0,82,29.84,10.0,Calm,Calm,-,N/A,,Mostly Cloudy,0,2012-12-07 20:55:00
3:55 PM,50.2,46.2,86,29.86,10.0,North,6.9,-,N/A,,Overcast,360,2012-12-07 21:55:00
4:55 PM,48.7,46.0,90,29.87,10.0,North,10.4,-,N/A,,Mostly Cloudy,350,2012-12-07 22:55:00
4:56 PM,48.2,46.4,93,29.88,10.0,North,6.9,-,N/A,,Mostly Cloudy,360,2012-12-07 22:56:00
5:38 PM,48.2,46.4,93,29.88,10.0,North,5.8,-,N/A,,Mostly Cloudy,360,2012-12-07 23:38:00
5:55 PM,47.7,46.6,96,29.89,10.0,North,5.8,-,N/A,,Overcast,10,2012-12-07 23:55:00
6:55 PM,46.9,46.8,99,29.89,9.0,NNE,4.6,-,N/A,,Overcast,20,2012-12-08 00:55:00
7:38 PM,46.4,46.4,100,29.89,10.0,North,10.4,-,N/A,,Mostly Cloudy,10,2012-12-08 01:38:00
7:55 PM,46.2,46.0,99,29.89,10.0,North,10.4,-,N/A,,Mostly Cloudy,10,2012-12-08 01:55:00
8:09 PM,46.4,44.6,93,29.91,10.0,North,6.9,-,N/A,,Mostly Cloudy,10,2012-12-08 02:09:00
8:38 PM,44.6,44.6,100,29.91,10.0,NNE,4.6,-,N/A,,Overcast,20,2012-12-08 02:38:00
8:55 PM,45.3,45.1,99,29.92,10.0,NNE,5.8,-,N/A,,Overcast,20,2012-12-08 02:55:00
9:05 PM,44.6,44.6,100,29.92,10.0,NNE,5.8,-,N/A,,Overcast,20,2012-12-08 03:05:00
9:55 PM,44.1,43.9,99,29.92,10.0,NNE,6.9,-,N/A,,Mostly Cloudy,20,2012-12-08 03:55:00
10:55 PM,43.2,42.8,99,29.91,10.0,Calm,Calm,-,N/A,,Mostly Cloudy,0,2012-12-08 04:55:00
11:55 PM,43.3,43.2,99,29.92,10.0,NNW,4.6,-,N/A,,Overcast,340,2012-12-08 05:55:00